Regional Weather Roundup
Issued by NWS Jackson, KY

Home | Current Version | Previous Version | Text Only | Print | Product List | Glossary On
Versions: 1 2 3 4 5 6 7 8 9 10 11 12 13 14 15 16 17 18 19 20 21 22 23 24 25 26 27 28 29 30 31 32 33 34 35 36 37 38 39 40 41 42 43 44 45 46 47 48 49 50
000
ASUS43 KJKL 181110
RWRJKL

EAST KENTUCKY HOURLY WEATHER ROUNDUP
NATIONAL WEATHER SERVICE JACKSON KY
600 AM EST SAT NOV 18 2017

NOTE: "FAIR" INDICATES FEW OR NO CLOUDS BELOW 12,000 FEET WITH
NO SIGNIFICANT WEATHER AND/OR OBSTRUCTIONS TO VISIBILITY.

* THESE REPORTS ARE NOT UNDER NWS QUALITY CONTROL AND MAY NOT
  REPORT WEATHER SUCH AS PRECIPITATION AND FOG.

KYZ079-080-083-085-087-088-110-112-115-119-120-181200
...EASTERN KENTUCKY...

CITY           SKY/WX    TMP DP  RH WIND       PRES   REMARKS
JACKSON        CLOUDY    58  37  45 S9        29.77F
LONDON         CLOUDY    58  38  47 S13       29.80F
SOMERSET*      CLOUDY    57  41  54 S14G22    29.81F
MONTICELLO*    CLOUDY    60  46  59 S10G22    29.80F
WILLIAMSBURG*  CLOUDY    59  41  51 S16G24    29.82F
MIDDLESBORO*   CLOUDY    56  39  54 S14G20    29.89F
HARLAN APT*    CLOUDY    59  32  36 CALM      29.88F
PIKE CO APT*   CLOUDY    56  31  37 S9        29.78F
BIG SANDY APT* CLOUDY    59  32  35 SW14G22   29.76F
MOREHEAD APT*  CLOUDY    57  41  54 S18       29.72F
$$

KYZ035-036-041-042-044-050-067-078-099-181200
...CENTRAL KENTUCKY...

CITY           SKY/WX    TMP DP  RH WIND       PRES   REMARKS
MT STERLING*   CLOUDY    59  45  58 SW20G32   29.72F
FLEMING/MASON* CLOUDY    55  45  68 SW15      29.68F
DANVILLE*      LGT RAIN  55  45  67 S13G26    29.74F
LEXINGTON      CLOUDY    60  43  53 S21G32    29.69F
FRANKFORT      CLOUDY    58  47  66 SW16G28   29.68S
LOUISVILLE     CLOUDY    64  49  57 S15G33    29.65F
LEBANON*       CLOUDY    59  43  55 S23G35    29.71S
GLASGOW*       CLOUDY    62  49  63 S16G28    29.72F
BOWLING GREEN  CLOUDY    62  49  62 S18G26    29.73S
$$

KYZ091>093-OHZ055-061-077-WVZ005-015-034-035-042-181200
...SOUTHERN OHIO/WEST VIRGINIA...

CITY           SKY/WX    TMP DP  RH WIND       PRES   REMARKS
COVINGTON      CLOUDY    57  46  66 S20G31    29.60F
COLUMBUS       CLOUDY    47  44  90 SE7       29.63F
DAYTON         CLOUDY    52  45  77 S15       29.58F
WILMINGTON     CLOUDY    52  46  80 S17G24    29.60F
HUNTINGTON     MOCLDY    55  29  36 S10       29.72F
CHARLESTON     CLOUDY    57  28  33 S6        29.74F
PINEVILLE*     CLOUDY    40  37  87 MISG      29.90F
BECKLEY        CLOUDY    53  19  26 SW15G22   29.84F
BLUEFIELD      PTCLDY    52  16  24 SW5       29.88F
LOGAN CO APT*  CLOUDY    55  28  35 S8G16     29.78F
$$

VAZ002-007-008-TNZ017-027-036-066-071-181200
...SOUTHWEST VIRGINIA/EAST TENNESSEE...

CITY           SKY/WX    TMP DP  RH WIND       PRES   REMARKS
WISE*          CLOUDY    50  32  50 SW8       29.91S
JONESVILLE*    CLOUDY    41  39  93 CALM      29.95F
ABINGDON*      CLOUDY    44  33  64 CALM      29.93F
BRISTOL        MOCLDY    41  38  89 CALM      29.94S
MORRISTOWN*    CLOUDY    46  39  76 CALM      29.93S
SEVIERVILLE*   CLOUDY    39  37  93 CALM      29.94F
KNOXVILLE      MOCLDY    46  41  82 CALM      29.93S
LAFOLLETTE*    CLOUDY    57  39  51 S17G25    29.92F
OAK RIDGE      CLOUDY    51  42  71 W3        29.94F
CROSSVILLE     CLOUDY    51  40  65 S6G16     29.89F
NASHVILLE      CLOUDY    62  51  67 S17G31    29.78F
$$

...KEY TO REMARKS...
VSB - VISIBILITY IN MILES
WCI - WIND CHILL INDEX
HX  - HEAT INDEX

$$



USA.gov is the U.S. government's official web portal to all federal, state and local government web resources and services.